カタログに戻る

FORMOSAT-7R/TRITON

運用中気象SSO
NORAD 58017·PAYLOAD·🇹🇼 Taiwan

打ち上げ Oct 9, 2023 から Guiana Space Centre

Loading…

次のパス (今後24時間)

TLE

最新Source: Space-Track

元期: Sep 14, 2026, 22:50 UTC

1 58017U 23155B   26257.95196769  .00001058  00000-0  11181-3 0  9990
2 58017  97.8305 338.7046 0002365 115.2847 244.8616 14.91335261159607

AllMySatでFORMOSAT-7R/TRITONをリアルタイム追跡

Download on the App Store